Monterrey Gen Maria, Mexico

9:10 PM CDT on April 26, 2018 (GMT -0500)
Gen Mariano Escobedo International

Weather History for MMMY - March, 2013

Change the Weather History Date:

Monday, March 25, 2013

  Actual Average Record
Temperature  
Mean Temperature 56 °F -  
Max Temperature 66 °F 80 °F 102 °F (2002)
Min Temperature 46 °F 58 °F 46 °F (2006)
Degree Days  
Heating Degree Days 9    
Growing Degree Days 6 (Base 50)    
Moisture  
Dew Point 27 °F    
Average Humidity 32    
Maximum Humidity 58    
Minimum Humidity 23    
Precipitation  
Precipitation 0.25 in - - ()
Sea Level Pressure  
Sea Level Pressure 30.19 in    
Wind  
Wind Speed 8 mph ()    
Max Wind Speed 17 mph    
Max Gust Speed 28 mph    
Visibility 14.7 miles    
Events      
Averages and records for this station are not official NWS values.
T = Trace of Precipitation, MM = Missing Value Source: Averaged Metar Reports

Daily Weather History Graph

Daily Weather History Graph

Search for Another Location

Airport or City:

Astronomy

Mar. 25, 2013 Rise Set
Actual Time 6:38 AM CST 6:54 PM CST
Civil Twilight 6:15 AM CST 7:17 PM CST
Nautical Twilight 5:48 AM CST 7:43 PM CST
Astronomical Twilight 5:21 AM CST 8:11 PM CST
Moon 5:32 PM CST (3/25) 5:15 AM CST (3/25)
Length of Visible Light 13h 01m
Length of Day
12h 15m
Waxing Gibbous, 97% of the Moon is Illuminated
Mar 25
Waxing Gibbous
Mar 27
Full
Apr 2
Last Quarter
Apr 10
New
Apr 18
First Quarter

Hourly Weather History & Observations

Time (CST) Temp. Windchill Dew Point Humidity Pressure Visibility Wind Dir Wind Speed Gust Speed Precip Events Conditions
12:40 AM 53.6 °F - 19.4 °F 26% 30.07 in 15.0 mi SSE 8.1 mph - N/A   Clear
1:45 AM 50.0 °F - 19.4 °F 30% 30.10 in 15.0 mi ESE 6.9 mph - N/A   Clear
2:45 AM 51.8 °F - 15.8 °F 24% 30.08 in 15.0 mi East 5.8 mph - N/A   Clear
3:45 AM 50.0 °F - 21.2 °F 32% 30.12 in 15.0 mi East 5.8 mph - N/A   Clear
4:44 AM 46.4 °F 42.4 °F 17.6 °F 32% 30.14 in 15.0 mi East 8.1 mph - N/A   Clear
5:41 AM 48.2 °F - 21.2 °F 34% 30.18 in 15.0 mi East 8.1 mph - N/A   Clear
6:45 AM 48.2 °F - 24.8 °F 40% 30.19 in 15.0 mi East 5.8 mph - N/A   Scattered Clouds
7:40 AM 51.8 °F - 21.2 °F 30% 30.22 in 15.0 mi NE 9.2 mph - N/A   Mostly Cloudy
8:48 AM 53.6 °F - 21.2 °F 28% 30.27 in 15.0 mi ESE 13.8 mph - N/A   Mostly Cloudy
9:41 AM 55.4 °F - 26.6 °F 33% 30.27 in 15.0 mi East 5.8 mph - N/A   Mostly Cloudy
10:41 AM 57.2 °F - 28.4 °F 33% 30.26 in 15.0 mi ESE 13.8 mph - N/A   Mostly Cloudy
11:50 AM 60.8 °F - 26.6 °F 27% 30.26 in 15.0 mi SE 12.7 mph - N/A   Mostly Cloudy
12:40 PM 60.8 °F - 26.6 °F 27% 30.21 in 15.0 mi East 6.9 mph - N/A   Scattered Clouds
1:53 PM 64.4 °F - 26.6 °F 24% 30.18 in 15.0 mi ENE 9.2 mph - N/A   Scattered Clouds
2:44 PM 66.2 °F - 28.4 °F 24% 30.21 in 15.0 mi SE 10.4 mph - N/A   Clear
3:44 PM 66.2 °F - 26.6 °F 23% 30.13 in 15.0 mi East 9.2 mph - N/A   Partly Cloudy
4:45 PM 66.2 °F - 26.6 °F 23% 30.12 in 15.0 mi ESE 16.1 mph - N/A   Scattered Clouds
5:42 PM 66.2 °F - 26.6 °F 23% 30.15 in 15.0 mi ESE 13.8 mph - N/A   Scattered Clouds
6:44 PM 64.4 °F - 28.4 °F 26% 30.15 in 15.0 mi East 9.2 mph - N/A   Scattered Clouds
7:50 PM 62.6 °F - 28.4 °F 27% 30.17 in 15.0 mi ENE 6.9 mph - N/A   Mostly Cloudy
8:46 PM 60.8 °F - 35.6 °F 39% 30.22 in 15.0 mi East 13.8 mph - N/A   Mostly Cloudy
9:44 PM 57.2 °F - 39.2 °F 51% 30.25 in 15.0 mi East 16.1 mph 27.6 mph N/A   Mostly Cloudy
10:45 PM 55.4 °F - 41.0 °F 58% 30.28 in 12.0 mi East 16.1 mph - N/A   Overcast
11:48 PM 55.4 °F - 41.0 °F 58% 30.33 in 10.0 mi East 17.3 mph - N/A   Overcast